| time (UTC) | temp F | wind direction | speed MPH | gust MPH | rain 1hr in | rain 24hr in | rain mn in | humidity % | barometer mb |
| 20260831000517 | 86 | 0.0 | 0.0 | 0.00 | 0.00 | 0.00 | 61 | ||
| 20260830235556 | 86 | 135 | 1.0 | 2.0 | 0.00 | 0.00 | 0.00 | 61 | |
| 20260830234516 | 87 | 248 | 3.0 | 6.0 | 0.00 | 0.00 | 0.00 | 61 | |
| 20260830233517 | 88 | 270 | 3.0 | 8.0 | 0.00 | 0.00 | 0.00 | 62 | |
| 20260830232516 | 88 | 248 | 2.0 | 4.0 | 0.00 | 0.00 | 0.00 | 62 | |
| 20260830231516 | 88 | 225 | 1.0 | 4.0 | 0.00 | 0.00 | 0.00 | 62 | |
| 20260830230516 | 89 | 113 | 1.0 | 2.0 | 0.00 | 0.00 | 0.00 | 62 | |
| 20260830225537 | 89 | 203 | 1.0 | 4.0 | 0.00 | 0.00 | 0.00 | 61 | |
| 20260830224516 | 89 | 248 | 1.0 | 4.0 | 0.00 | 0.00 | 0.00 | 62 | |
| 20260830223516 | 90 | 180 | 1.0 | 4.0 | 0.00 | 0.00 | 0.00 | 63 | |
| 20260830222516 | 90 | 180 | 1.0 | 3.0 | 0.00 | 0.00 | 0.00 | 63 | |
| 20260830221516 | 90 | 0.0 | 2.0 | 0.00 | 0.00 | 0.00 | 64 | ||
| 20260830220516 | 90 | 23 | 1.0 | 3.0 | 0.00 | 0.00 | 0.00 | 65 | |
| 20260830215516 | 89 | 23 | 1.0 | 4.0 | 0.00 | 0.00 | 0.00 | 64 | |
| 20260830214516 | 89 | 90 | 1.0 | 4.0 | 0.00 | 0.00 | 0.00 | 64 | |
| 20260830213515 | 89 | 0.0 | 2.0 | 0.00 | 0.00 | 0.00 | 64 | ||
| 20260830212516 | 89 | 248 | 1.0 | 5.0 | 0.00 | 0.00 | 0.00 | 64 | |
| 20260830211516 | 89 | 180 | 1.0 | 4.0 | 0.00 | 0.00 | 0.00 | 64 | |
| 20260830210516 | 90 | 158 | 1.0 | 3.0 | 0.00 | 0.00 | 0.00 | 62 | |
| 20260830205516 | 90 | 315 | 1.0 | 4.0 | 0.00 | 0.00 | 0.00 | 62 | |
| 20260830204516 | 90 | 180 | 1.0 | 5.0 | 0.00 | 0.00 | 0.00 | 62 | |
| 20260830203516 | 90 | 293 | 1.0 | 2.0 | 0.00 | 0.00 | 0.00 | 63 | |
| 20260830202516 | 90 | 203 | 1.0 | 3.0 | 0.00 | 0.00 | 0.00 | 62 | |
| 20260830201517 | 90 | 203 | 1.0 | 5.0 | 0.00 | 0.00 | 0.00 | 63 | |
| 20260830200517 | 89 | 180 | 1.0 | 4.0 | 0.00 | 0.00 | 0.00 | 63 | |
| 20260830195517 | 90 | 270 | 3.0 | 7.0 | 0.00 | 0.00 | 0.00 | 60 | |
| 20260830194518 | 90 | 315 | 2.0 | 4.0 | 0.00 | 0.00 | 0.00 | 60 | |
| 20260830193517 | 89 | 293 | 2.0 | 4.0 | 0.00 | 0.00 | 0.00 | 63 | |
| 20260830192517 | 88 | 135 | 1.0 | 4.0 | 0.00 | 0.00 | 0.00 | 64 | |
| 20260830191517 | 88 | 90 | 2.0 | 7.0 | 0.00 | 0.00 | 0.00 | 64 | |
| 20260830190517 | 87 | 0 | 1.0 | 4.0 | 0.00 | 0.00 | 0.00 | 67 | |
| 20260830185538 | 87 | 270 | 3.0 | 7.0 | 0.00 | 0.00 | 0.00 | 65 | |
| 20260830184517 | 86 | 293 | 2.0 | 4.0 | 0.00 | 0.00 | 0.00 | 68 | |
| 20260830183517 | 85 | 23 | 2.0 | 4.0 | 0.00 | 0.00 | 0.00 | 69 | |
| 20260830182517 | 84 | 315 | 1.0 | 6.0 | 0.00 | 0.00 | 0.00 | 70 | |
| 20260830181517 | 84 | 203 | 1.0 | 5.0 | 0.00 | 0.00 | 0.00 | 73 | |
| 20260830180518 | 83 | 113 | 2.0 | 4.0 | 0.00 | 0.00 | 0.00 | 73 | |
| 20260830175517 | 82 | 158 | 1.0 | 2.0 | 0.00 | 0.00 | 0.00 | 74 | |
| 20260830174517 | 82 | 135 | 1.0 | 3.0 | 0.00 | 0.00 | 0.00 | 75 | |
| 20260830173517 | 81 | 293 | 1.0 | 2.0 | 0.00 | 0.00 | 0.00 | 76 | |
| 20260830172536 | 81 | 270 | 1.0 | 5.0 | 0.00 | 0.00 | 0.00 | 76 | |
| 20260830171517 | 80 | 270 | 1.0 | 6.0 | 0.00 | 0.00 | 0.00 | 75 | |
| 20260830170557 | 80 | 0.0 | 3.0 | 0.00 | 0.00 | 0.00 | 76 | ||
| 20260830165517 | 80 | 90 | 1.0 | 5.0 | 0.00 | 0.00 | 0.00 | 76 | |
| 20260830164516 | 80 | 203 | 1.0 | 4.0 | 0.00 | 0.00 | 0.00 | 76 | |
| 20260830163517 | 80 | 68 | 1.0 | 4.0 | 0.00 | 0.00 | 0.00 | 76 | |
| 20260830162516 | 80 | 90 | 1.0 | 3.0 | 0.00 | 0.00 | 0.00 | 76 | |
| 20260830161516 | 80 | 338 | 1.0 | 3.0 | 0.00 | 0.00 | 0.00 | 76 | |
| 20260830160516 | 80 | 293 | 2.0 | 6.0 | 0.00 | 0.00 | 0.00 | 75 | |
| 20260830155516 | 80 | 225 | 1.0 | 4.0 | 0.00 | 0.00 | 0.00 | 78 | |
| 20260830154517 | 79 | 68 | 2.0 | 4.0 | 0.00 | 0.00 | 0.00 | 80 | |
| 20260830153517 | 78 | 315 | 1.0 | 3.0 | 0.00 | 0.00 | 0.00 | 81 | |
| 20260830152516 | 77 | 90 | 1.0 | 4.0 | 0.00 | 0.00 | 0.00 | 81 | |
| 20260830151516 | 76 | 135 | 2.0 | 3.0 | 0.00 | 0.00 | 0.00 | 83 | |
| 20260830150516 | 75 | 338 | 1.0 | 2.0 | 0.00 | 0.00 | 0.00 | 86 | |
| 20260830145517 | 74 | 90 | 1.0 | 2.0 | 0.00 | 0.00 | 0.00 | 88 | |
| 20260830144516 | 73 | 0.0 | 2.0 | 0.00 | 0.00 | 0.00 | 89 | ||
| 20260830143516 | 73 | 113 | 1.0 | 3.0 | 0.00 | 0.00 | 0.00 | 90 | |
| 20260830142536 | 72 | 0.0 | 2.0 | 0.00 | 0.00 | 0.00 | 90 | ||
| 20260830141516 | 72 | 0.0 | 1.0 | 0.00 | 0.00 | 0.00 | 91 | ||
| 20260830140516 | 71 | 0.0 | 2.0 | 0.00 | 0.00 | 0.00 | 91 | ||
| 20260830135517 | 71 | 0.0 | 1.0 | 0.00 | 0.00 | 0.00 | 91 | ||
| 20260830134516 | 71 | 0.0 | 1.0 | 0.00 | 0.00 | 0.00 | 92 | ||
| 20260830133516 | 70 | 0.0 | 2.0 | 0.00 | 0.00 | 0.00 | 92 | ||
| 20260830132516 | 70 | 135 | 1.0 | 3.0 | 0.00 | 0.00 | 0.00 | 91 | |
| 20260830131516 | 70 | 0.0 | 2.0 | 0.00 | 0.00 | 0.00 | 91 | ||
| 20260830130515 | 69 | 0.0 | 2.0 | 0.00 | 0.00 | 0.00 | 91 | ||
| 20260830125516 | 69 | 0.0 | 2.0 | 0.00 | 0.00 | 0.00 | 91 | ||
| 20260830124516 | 69 | 0.0 | 0.0 | 0.00 | 0.00 | 0.00 | 91 | ||
| 20260830123516 | 69 | 0.0 | 1.0 | 0.00 | 0.00 | 0.00 | 91 | ||
| 20260830122515 | 69 | 0.0 | 1.0 | 0.00 | 0.00 | 0.00 | 91 | ||
| 20260830121516 | 69 | 0.0 | 1.0 | 0.00 | 0.00 | 0.00 | 90 | ||
| 20260830120518 | 69 | 0.0 | 1.0 | 0.00 | 0.00 | 0.00 | 90 | ||
| 20260830115518 | 69 | 0.0 | 0.0 | 0.00 | 0.14 | 0.00 | 90 | ||
| 20260830114517 | 69 | 0.0 | 1.0 | 0.00 | 0.14 | 0.00 | 90 | ||
| 20260830113517 | 69 | 0.0 | 1.0 | 0.00 | 0.14 | 0.00 | 90 | ||
| 20260830112537 | 69 | 0.0 | 0.0 | 0.00 | 0.14 | 0.00 | 89 | ||
| 20260830111538 | 69 | 0.0 | 0.0 | 0.00 | 0.14 | 0.00 | 89 | ||
| 20260830110517 | 69 | 0.0 | 0.0 | 0.00 | 0.14 | 0.00 | 89 | ||
| 20260830105518 | 69 | 0.0 | 0.0 | 0.00 | 0.27 | 0.00 | 89 | ||
| 20260830104517 | 69 | 0.0 | 0.0 | 0.00 | 0.27 | 0.00 | 89 | ||
| 20260830103517 | 69 | 0.0 | 0.0 | 0.00 | 0.27 | 0.00 | 89 | ||
| 20260830102558 | 69 | 0.0 | 0.0 | 0.00 | 0.27 | 0.00 | 89 | ||
| 20260830101517 | 69 | 0.0 | 0.0 | 0.00 | 0.27 | 0.00 | 88 | ||
| 20260830100517 | 69 | 0.0 | 0.0 | 0.00 | 0.27 | 0.00 | 88 | ||
| 20260830095538 | 70 | 0.0 | 0.0 | 0.00 | 0.33 | 0.00 | 88 | ||
| 20260830094517 | 70 | 0.0 | 0.0 | 0.00 | 0.33 | 0.00 | 88 | ||
| 20260830093516 | 70 | 0.0 | 0.0 | 0.00 | 0.33 | 0.00 | 88 | ||
| 20260830092517 | 70 | 0.0 | 0.0 | 0.00 | 0.33 | 0.00 | 87 | ||
| 20260830091517 | 70 | 0.0 | 0.0 | 0.00 | 0.33 | 0.00 | 87 | ||
| 20260830090516 | 70 | 0.0 | 0.0 | 0.00 | 0.33 | 0.00 | 87 | ||
| 20260830085538 | 70 | 0.0 | 0.0 | 0.00 | 0.33 | 0.00 | 87 | ||
| 20260830084516 | 70 | 0.0 | 0.0 | 0.00 | 0.33 | 0.00 | 87 | ||
| 20260830083517 | 70 | 0.0 | 0.0 | 0.00 | 0.33 | 0.00 | 86 | ||
| 20260830082516 | 71 | 0.0 | 0.0 | 0.00 | 0.33 | 0.00 | 86 | ||
| 20260830081516 | 71 | 0.0 | 0.0 | 0.00 | 0.33 | 0.00 | 86 | ||
| 20260830080516 | 71 | 0.0 | 0.0 | 0.00 | 0.33 | 0.00 | 86 | ||
| 20260830075516 | 71 | 0.0 | 0.0 | 0.00 | 0.33 | 0.00 | 86 | ||
| 20260830074516 | 71 | 0.0 | 0.0 | 0.00 | 0.33 | 0.00 | 85 | ||
| 20260830073517 | 71 | 0.0 | 0.0 | 0.00 | 0.33 | 0.00 | 85 | ||
| 20260830072516 | 71 | 0.0 | 0.0 | 0.00 | 0.33 | 0.00 | 85 | ||
| 20260830071516 | 71 | 0.0 | 0.0 | 0.00 | 0.33 | 0.00 | 84 | ||
| 20260830070516 | 71 | 0.0 | 0.0 | 0.00 | 0.33 | 0.00 | 84 | ||
| 20260830065517 | 72 | 0.0 | 0.0 | 0.00 | 0.33 | 0.00 | 84 | ||
| 20260830064516 | 72 | 0.0 | 0.0 | 0.00 | 0.33 | 0.00 | 84 | ||
| 20260830063517 | 72 | 0.0 | 0.0 | 0.00 | 0.33 | 0.00 | 84 | ||
| 20260830062516 | 72 | 0.0 | 1.0 | 0.00 | 0.33 | 0.00 | 83 | ||
| 20260830061516 | 72 | 0.0 | 0.0 | 0.00 | 0.33 | 0.00 | 83 | ||
| 20260830060516 | 72 | 0.0 | 1.0 | 0.00 | 0.33 | 0.00 | 83 | ||
| 20260830055517 | 72 | 0.0 | 1.0 | 0.00 | 0.33 | 0.00 | 83 | ||
| 20260830054516 | 72 | 0.0 | 0.0 | 0.00 | 0.33 | 0.00 | 83 | ||
| 20260830053516 | 73 | 0.0 | 1.0 | 0.00 | 0.33 | 0.00 | 83 | ||
| 20260830052516 | 73 | 0.0 | 0.0 | 0.00 | 0.33 | 0.00 | 82 | ||
| 20260830051517 | 73 | 0.0 | 0.0 | 0.00 | 0.33 | 0.00 | 82 | ||
| 20260830050515 | 73 | 0.0 | 0.0 | 0.00 | 0.33 | 0.00 | 82 | ||
| 20260830045517 | 73 | 0.0 | 0.0 | 0.00 | 0.33 | 0.33 | 81 | ||
| 20260830044517 | 73 | 0.0 | 0.0 | 0.00 | 0.33 | 0.33 | 81 | ||
| 20260830043606 | 73 | 0.0 | 0.0 | 0.00 | 0.33 | 0.33 | 81 | ||
| 20260830042517 | 74 | 0.0 | 0.0 | 0.00 | 0.33 | 0.33 | 80 | ||
| 20260830041517 | 74 | 0.0 | 0.0 | 0.00 | 0.33 | 0.33 | 80 | ||
| 20260830040517 | 74 | 0.0 | 0.0 | 0.00 | 0.33 | 0.33 | 80 | ||
| 20260830035518 | 74 | 0.0 | 0.0 | 0.00 | 0.33 | 0.33 | 79 | ||
| 20260830034517 | 74 | 0.0 | 0.0 | 0.00 | 0.33 | 0.33 | 79 | ||
| 20260830033517 | 75 | 0.0 | 0.0 | 0.00 | 0.33 | 0.33 | 78 | ||
| 20260830032518 | 75 | 0.0 | 0.0 | 0.00 | 0.33 | 0.33 | 78 | ||
| 20260830031517 | 75 | 0.0 | 0.0 | 0.00 | 0.33 | 0.33 | 78 | ||
| 20260830030517 | 75 | 0.0 | 0.0 | 0.00 | 0.33 | 0.33 | 77 | ||
| 20260830025516 | 76 | 0.0 | 0.0 | 0.00 | 0.33 | 0.33 | 77 | ||
| 20260830024516 | 76 | 0.0 | 0.0 | 0.00 | 0.33 | 0.33 | 77 | ||
| 20260830023516 | 76 | 0.0 | 0.0 | 0.00 | 0.33 | 0.33 | 77 | ||
| 20260830022517 | 77 | 0.0 | 0.0 | 0.00 | 0.33 | 0.33 | 77 | ||
| 20260830021516 | 77 | 0.0 | 0.0 | 0.00 | 0.33 | 0.33 | 76 | ||
| 20260830020516 | 77 | 0.0 | 1.0 | 0.00 | 0.33 | 0.33 | 76 | ||
| 20260830015517 | 77 | 0.0 | 1.0 | 0.00 | 0.33 | 0.33 | 75 | ||
| 20260830014536 | 78 | 0.0 | 1.0 | 0.00 | 0.33 | 0.33 | 74 | ||
| 20260830013517 | 78 | 0.0 | 0.0 | 0.00 | 0.33 | 0.33 | 73 | ||
| 20260830012516 | 79 | 0.0 | 1.0 | 0.00 | 0.33 | 0.33 | 72 | ||
| 20260830011516 | 79 | 0.0 | 1.0 | 0.00 | 0.33 | 0.33 | 71 | ||
| 20260830010516 | 79 | 0.0 | 0.0 | 0.00 | 0.33 | 0.33 | 70 | ||
| 20260830005517 | 80 | 0.0 | 1.0 | 0.00 | 0.33 | 0.33 | 69 | ||
| 20260830004516 | 80 | 0.0 | 0.0 | 0.00 | 0.33 | 0.33 | 67 | ||
| 20260830003517 | 81 | 0.0 | 0.0 | 0.00 | 0.33 | 0.33 | 67 | ||
| 20260830002517 | 81 | 0.0 | 0.0 | 0.00 | 0.33 | 0.33 | 66 | ||
| 20260830001516 | 81 | 0.0 | 1.0 | 0.00 | 0.33 | 0.33 | 66 |